Content
SEND FEEDBACK

Daily
Averages
Monthly
Summary
United States of America

BAYSIDE, NEW YORK


Home > North America > United States > New York
Elevation: 11 feet     Latitude: 40 46N     Longitude: 073 54W

WEATHER
 
SELECT A DAY
Number of Records: 195,584;   Date Range: 1/1/95 - 12/18/14
 
SHARE

PRINT THIS DATA

[ ← Previous Day ]
WEATHER ALMANAC - FEBRUARY 21, 2014
[ Next Day → ]
[ °C ]   °F
Weather ElementAverageHighLow
Temperature38.7 °F46.9 °F (7:51 pm)33.8 °F (1:23 am)
Dewpoint35 °F44.1 °F (3:51 pm)30.9 °F (9:51 pm)
Humidity87.2 %100 % (10:45 am)60 % (8:51 pm)
Barometer29.86 in30.02 in (12:51 am)29.65 in (3:51 pm)
Wind Speed9.1 mph16.1 mph (5:51 am)
Wind Gust24.2 mph (4:13 pm)
Weather ElementAverage
Visibility3.4 mi
Wind DirectionESE (118.7 °)

Weather ElementTotal
Precipitation0.15 in
Heating Degree Days24.7 (Base 65)
Averaged from 30 records on February 21, 2014
WEATHER CONDITIONS BREAKOUT
WIND DIRECTION BREAKOUT
WEATHER BY HOUR - FEBRUARY 21, 2014
[ °C ]   °F
Local TimeTemperatureDewpointHumidityBarometerVisibilityWind DirectionWind SpeedGust SpeedPrecipitationEventsConditions
12:51 AM35.1 °F32.0 °F89 %30.02 in1.5 miNE (40°)8.1 mphOvercast
12:56 AM35.6 °F32.0 °F87 %30.02 in0.2 miNE (40°)10.4 mphOvercast
1:23 AM33.8 °F32.0 °F93 %30.01 in0.2 miENE (60°)10.4 mphOvercast
1:51 AM34.0 °F32.0 °F92 %29.99 in0.2 miNE (50°)9.2 mphOvercast
2:51 AM34.0 °F32.0 °F92 %29.97 in0.2 miNE (40°)9.2 mphOvercast
3:51 AM34.0 °F32.0 °F92 %29.96 in0.2 miNE (40°)9.2 mphFogFog
4:51 AM34.0 °F32.0 °F92 %29.96 in0.2 miNE (50°)12.7 mphFogFog
5:51 AM34.0 °F32.0 °F92 %29.96 in0.2 miNE (50°)16.1 mph0.00 inLight Drizzle
6:51 AM34.0 °F32.0 °F92 %29.95 in0.5 miNE (50°)13.8 mph0.00 inFogLight Drizzle
7:51 AM34.0 °F32.0 °F92 %29.94 in0.8 miNE (40°)10.4 mph0.00 inLight Drizzle
8:51 AM34.0 °F32.0 °F92 %29.94 in0.8 miNE (50°)12.7 mph0.00 inRainLight Rain
9:51 AM34.0 °F33.1 °F96 %29.90 in0.5 miNE (40°)10.4 mph0.00 inFogLight Drizzle
10:45 AM33.8 °F33.8 °F100 %29.90 in0.1 miNNE (30°)9.2 mph0.00 inFogLight Drizzle
10:51 AM34.0 °F33.1 °F96 %29.89 in0.1 miNE (40°)12.7 mph0.00 inFogLight Drizzle
11:51 AM34.0 °F33.1 °F96 %29.83 in0.1 miNE (50°)10.4 mph0.00 inFogLight Drizzle
12:51 PM34.0 °F33.1 °F96 %29.76 in0.1 miNE (50°)10.4 mph0.00 inFogFog
1:51 PM35.1 °F34.0 °F96 %29.72 in0.1 miNE (50°)11.5 mph0.00 inFogLight Drizzle
2:51 PM46.0 °F43.0 °F89 %29.67 in0.1 miSouth (170°)9.2 mph0.00 inFogLight Drizzle
3:51 PM45.0 °F44.1 °F97 %29.65 in1.5 miSSE (160°)10.4 mph0.09 inRainLight Rain
4:13 PM44.6 °F41.0 °F87 %29.70 in3.0 miWNW (290°)11.5 mph24.2 mph0.02 inRainLight Rain
4:42 PM44.6 °F41.0 °F87 %29.73 in6.0 miNW (320°)9.2 mph17.3 mph0.02 inOvercast
4:51 PM44.1 °F42.1 °F93 %29.74 in6.0 miNNW (340°)8.1 mph0.02 inOvercast
5:07 PM44.6 °F42.8 °F93 %29.75 in10.0 miNNW (340°)4.6 mphOvercast
5:51 PM46.0 °F41.0 °F83 %29.76 in10.0 miCalm0.00 inRainLight Rain
6:51 PM46.0 °F41.0 °F83 %29.76 in10.0 miCalm0.00 inRainLight Rain
7:51 PM46.9 °F36.0 °F66 %29.83 in10.0 miWSW (250°)6.9 mph0.00 inOvercast
8:51 PM45.0 °F32.0 °F60 %29.85 in10.0 miWest (260°)8.1 mphScattered Clouds
9:51 PM44.1 °F30.9 °F60 %29.88 in10.0 miWSW (250°)8.1 mphClear
10:51 PM43.0 °F32.0 °F65 %29.89 in10.0 miSSW (210°)6.9 mphClear
11:51 PM41.0 °F30.9 °F67 %29.92 in10.0 miSSW (200°)4.6 mphClear
Hourly data recorded from KLGA, located miles away from Bayside, New York







STORIES FROM OUR PARTNERS